Regional Weather Roundup
Issued by NWS

Home | Current Version | Previous Version | Graphics & Text | Print | Product List | Glossary On
Versions: 1 2 3 4 5 6 7 8 9 10 11 12 13 14 15 16 17 18 19 20 21 22 23 24 25 26 27 28 29 30 31 32 33 34 35 36 37 38 39 40 41 42 43 44 45 46 47 48 49
000
ASUS45 KBOU 050307
RWRCO

WEATHER ROUNDUP FOR COLORADO
NATIONAL WEATHER SERVICE DENVER/BOULDER CO
900 PM MDT FRI SEP 04 2015

NOTE: "FAIR" INDICATES FEW OR NO CLOUDS BELOW 12000 FEET WITH NO
SIGNIFICANT WEATHER AND/OR OBSTRUCTIONS TO VISIBILITY.

COZ001>005-013-030-031-050400-
...NORTHWEST COLORADO...

CITY           SKY/WX    TMP DP  RH WIND       PRES   REMARKS
CRAIG          MOCLDY    64  45  49 SE7       30.04R
HAYDEN         MOCLDY    63  45  51 E12       30.07R
MEEKER         MOCLDY    64  46  52 NW5       30.06R
MOUNT WERNER   NOT AVBL
STEAMBOAT SPGS MOCLDY    62  45  54 E7        30.10R
WALDEN         CLOUDY    54  43  66 SE7       30.19S
$$

COZ006>008-011-050400-
...WEST CENTRAL VALLEYS...

CITY           SKY/WX    TMP DP  RH WIND       PRES   REMARKS
GRAND JUNCTION MOCLDY    64  57  78 SE20      29.97R
MONTROSE       CLOUDY    63  53  70 SE9       30.09R
EAGLE          CLOUDY    61  55  82 E5        30.16R
RIFLE          MOCLDY    60  55  83 CALM      30.06R
DELTA          RAIN      65  57  77 NE9       30.05S
NUCLA          CLOUDY    63  54  72 CALM      30.11R
$$

COZ017>023-064>068-050400-
...SOUTHWEST COLORADO...

CITY           SKY/WX    TMP DP  RH WIND       PRES   REMARKS
DURANGO        LGT RAIN  59  57  93 CALM      30.18R
CORTEZ         PTCLDY    62  51  67 NW5       30.10R
PAGOSA SPRINGS CLOUDY    56  56  97 CALM      30.25R
TELLURIDE      CLOUDY    51  46  84 E7        30.32S
WOLF CREEK PAS NOT AVBL
$$

COZ009-010-012-014-032>034-037-058>063-050400-
...CENTRAL COLORADO...

CITY           SKY/WX    TMP DP  RH WIND       PRES   REMARKS
ASPEN          CLOUDY    55  52  89 CALM      30.21R
BUENA VISTA    CLOUDY    59  49  68 S5        30.21R
COPPER MTN     RAIN      45  41  87 W9G18     30.48R
BERTHOUD PASS  CLOUDY    41  30  65 MISG      30.51S
COTTONWOOD PAS CLOUDY    55  46  71 CALM      30.33R
GUNNISON       CLOUDY    55  50  82 SW6       30.27R
KREMMLING      CLOUDY    54  50  87 CALM      30.20R
LEADVILLE      TSTM      47  47 100 W9        30.34R FOG
MONARCH PASS   LGT RAIN  43  41  93 SW17G25   30.56R VSB<1/4
SALIDA         CLOUDY    62  50  63 CALM      30.25R
SUNLIGHT       CLOUDY    46  45  93 CALM      30.40S
WILKERSON PASS CLOUDY    46  43  87 SW7       30.44S
$$

COZ069>075-050400-
...SAN LUIS VALLEY/SANGRE DE CRISTO MOUNTAINS...

CITY           SKY/WX    TMP DP  RH WIND       PRES   REMARKS
ALAMOSA        MOCLDY    58  49  72 S15       30.21R
LA VETA PASS   CLOUDY    46  43  87 MISG      30.35S
SAGUACHE       CLOUDY    54  52  94 CALM      30.24R
$$

COZ035-036-038>040-050400-
...NORTHERN COLORADO FRONT RANGE...

CITY           SKY/WX    TMP DP  RH WIND       PRES   REMARKS
DENVER INTL AP LGT RAIN  72  50  45 NW7       29.98R
DMNS CITY PARK   N/A     69  51  51 SE9       29.98S
AURORA         MOCLDY    70  51  51 CALM      30.01R
FRONT RANGE AP CLOUDY    70  46  43 W5        30.00R
ERIE MUNI ARPT CLOUDY    68  51  54 S5        29.97R
BOULDER MUN AP CLOUDY    70  46  43 CALM      29.97S
CENTENNIAL     LGT RAIN  71  52  50 W3        30.01F
BROOMFIELD     MOCLDY    72  46  40 VRB5      30.01R
FORT COLLINS   CLOUDY    72  48  43 N7        29.96S
LONGMONT       CLOUDY    69  52  54 W3        29.98R
$$

COZ041-046-047-076>085-087-088-050400-
...PIKES PEAK/PALMER DIVIDE AND SOUTHERN FOOTHILLS...

CITY           SKY/WX    TMP DP  RH WIND       PRES   REMARKS
COLO. SPRINGS  CLOUDY    72  47  40 S7        30.05R
A. F. ACADEMY  CLOUDY    68  47  46 N5        30.06R
ELLICOTT       CLOUDY   N/A N/A N/A S9        30.04R
FALCON         CLOUDY    65  48  53 W3        30.11R
FORT CARSON    CLOUDY    71  49  46 SW6       30.01R
LIMON          CLOUDY    74  49  41 SE9       29.98R
MONUMENT HILL  CLOUDY    63  46  55 NW5       30.11R
TRINIDAD       CLOUDY    73  46  38 VRB5      30.07R
$$

COZ042>045-048>051-090-091-050400-
...NORTHEAST COLORADO...

CITY           SKY/WX    TMP DP  RH WIND       PRES   REMARKS
GREELEY ARPT   CLOUDY    72  52  49 W6        29.93S
AKRON          MOCLDY    80  45  28 S8        29.92R
BURLINGTON     MOCLDY    79  51  37 SE13      29.92R
WRAY           CLOUDY    83  51  32 SE10      29.86S
STERLING       MOCLDY    81  48  32 SE10G18   29.85S
HOLYOKE        MOCLDY    73  55  53 E12       29.88R
FORT MORGAN    MOCLDY    73  44  35 W5        29.91R
$$

COZ086-089-092>099-050400-
...SOUTHEAST COLORADO...

CITY           SKY/WX    TMP DP  RH WIND       PRES   REMARKS
PUEBLO         CLOUDY    79  49  34 W8        29.95R
LA JUNTA       CLOUDY    85  48  27 SW13      29.93R
LAMAR          PTCLDY    82  48  30 SW10      29.88R
SPRINGFIELD      N/A     77  47  34 S12       29.98R
$$



USA.gov is the U.S. government's official web portal to all federal, state and local government web resources and services.